User: anonymous   Login
Location: Unspecified
(0.0000°N, 0.0000°E)
Time: 10:30:35
(UTC+00:00)
Language:

EUCROPIS - Orbit

View from above orbital plane
View from above orbital plane
View from above satellite
View from above satellite

Ground track
Ground track

The orbit data is extracted from the following two-line orbital elements,

1 43807U 18099BB  20051.85941539 +.00000114 +00000-0 +15517-4 0  9990
2 43807 097.7180 125.6004 0012281 214.7583 145.2837 14.95524740065774
Epoch (UTC): 20 February 2020 20:37:33
Eccentricity: 0.0012281
inclination: 97.7180°
perigee height: 572 km
apogee height: 589 km
right ascension of ascending node: 125.6004°
argument of perigee: 214.7583°
revolutions per day: 14.95524740
mean anomaly at epoch: 145.2837°
orbit number at epoch: 6577

The dashed part of the orbit path shows where the satellite is in the earth's shadow,  

DLR